Alamosa, CO

4:21 PM MDT on October 19, 2017 (GMT -0600)
San Luis Valley Regional / Bergman Field

Weather History for KALS - September, 2014

Change the Weather History Date:

Monday, September 1, 2014

  Actual Average Record
Temperature  
Mean Temperature 62 °F 60 °F  
Max Temperature 84 °F 77 °F 86 °F (1948)
Min Temperature 39 °F 43 °F 29 °F (1962)
Degree Days  
Heating Degree Days 3 5  
Month to date heating degree days 3 5  
Since 1 July heating degree days 124 134  
Cooling Degree Days 0 0  
Month to date cooling degree days 0 0  
Year to date cooling degree days 60 51  
Growing Degree Days 12 (Base 50)    
Moisture  
Dew Point 32 °F    
Average Humidity 47    
Maximum Humidity 79    
Minimum Humidity 14    
Precipitation  
Precipitation 0.00 in 0.04 in 0.94 in (1942)
Month to date precipitation 0.00 0.04  
Year to date precipitation 3.88 4.99  
Snow  
Snow 0.00 in 0.00 in 0.00 in (2002)
Month to date snowfall 0.0 0.0  
Since 1 July snowfall 0.0 0.0  
Since 1 September snowfall 0.0 0.0  
Snow Depth 0.00 in    
Sea Level Pressure  
Sea Level Pressure 29.91 in    
Wind  
Wind Speed 7 mph (WSW)    
Max Wind Speed 20 mph    
Max Gust Speed 27 mph    
Visibility 10 miles    
Events      
T = Trace of Precipitation, MM = Missing Value Source: NWS Daily Summary

Daily Weather History Graph

Daily Weather History Graph

Search for Another Location

Airport or City:

Trip Planner

Search our weather history database for the weather conditions in past years. The results will help you decide how hot, cold, wet, or windy it might be!

Date:

Astronomy

Sep. 01, 2014 Rise Set
Actual Time 6:33 AM MDT 7:32 PM MDT
Civil Twilight 6:07 AM MDT 7:58 PM MDT
Nautical Twilight 5:35 AM MDT 8:30 PM MDT
Astronomical Twilight 5:02 AM MDT 9:03 PM MDT
Moon 1:13 PM MDT (9/1) 11:44 PM MDT (9/1)
Length of Visible Light 13h 51m
Length of Day
12h 58m
Waxing Crescent, 43% of the Moon is Illuminated
Sep 1
Waxing Crescent
Sep 2
First Quarter
Sep 8
Full
Sep 15
Last Quarter
Sep 24
New

Hourly Weather History & Observations

Time (MDT) Temp. Windchill Dew Point Humidity Pressure Visibility Wind Dir Wind Speed Gust Speed Precip Events Conditions
12:52 AM 48.0 °F - 35.1 °F 61% 29.87 in 10.0 mi South 4.6 mph - N/A   Clear
1:52 AM 48.9 °F - 35.1 °F 59% 29.86 in 10.0 mi SSW 9.2 mph - N/A   Clear
2:52 AM 50.0 °F - 35.1 °F 57% 29.85 in 10.0 mi SW 9.2 mph - N/A   Clear
3:52 AM 46.9 °F - 34.0 °F 61% 29.87 in 10.0 mi SE 6.9 mph - N/A   Clear
4:52 AM 45.0 °F 41.2 °F 34.0 °F 65% 29.89 in 10.0 mi West 6.9 mph - N/A   Clear
5:52 AM 39.9 °F 36.7 °F 33.1 °F 77% 29.94 in 10.0 mi South 4.6 mph - N/A   Clear
6:52 AM 39.9 °F - 33.1 °F 77% 29.97 in 10.0 mi Calm Calm - N/A   Clear
7:52 AM 50.0 °F - 36.0 °F 59% 29.98 in 10.0 mi West 3.5 mph - N/A   Clear
8:52 AM 59.0 °F - 35.6 °F 42% 30.21 in 10.0 mi SSW 4.6 mph - N/A   Clear
9:52 AM 66.0 °F - 30.0 °F 26% 29.95 in 10.0 mi South 3.5 mph - N/A   Clear
10:52 AM 71.1 °F - 30.9 °F 23% 29.93 in 10.0 mi Variable 3.5 mph - N/A   Clear
11:52 AM 73.9 °F - 30.9 °F 21% 29.90 in 10.0 mi Variable 4.6 mph - N/A   Clear
12:52 PM 79.0 °F - 30.0 °F 17% 29.87 in 10.0 mi Variable 5.8 mph - N/A   Clear
1:52 PM 81.0 °F - 28.0 °F 14% 29.85 in 10.0 mi North - - N/A   Clear
2:52 PM 82.9 °F - 28.9 °F 14% 29.82 in 10.0 mi West 11.5 mph 20.7 mph N/A   Partly Cloudy
3:52 PM 82.9 °F - 28.9 °F 14% 29.83 in 10.0 mi West 11.5 mph 26.5 mph N/A   Scattered Clouds
4:52 PM 81.0 °F - 28.9 °F 15% 29.84 in 10.0 mi West 11.5 mph - N/A   Partly Cloudy
5:52 PM 79.0 °F - 30.9 °F 17% 29.87 in 10.0 mi West 11.5 mph - N/A   Scattered Clouds
6:52 PM 73.9 °F - 33.1 °F 22% 29.90 in 10.0 mi WSW 6.9 mph - N/A   Partly Cloudy
7:52 PM 73.0 °F - 30.0 °F 20% 29.88 in 10.0 mi WSW 11.5 mph - N/A   Scattered Clouds
8:52 PM 71.1 °F - 28.9 °F 21% 29.90 in 10.0 mi NNE 8.1 mph - N/A   Scattered Clouds
9:52 PM 66.9 °F - 30.0 °F 25% 29.92 in 10.0 mi North 5.8 mph - N/A   Scattered Clouds
10:52 PM 62.1 °F - 30.9 °F 31% 29.94 in 10.0 mi North 10.4 mph - N/A   Clear
11:52 PM 55.9 °F - 32.0 °F 40% 29.97 in 10.0 mi North 5.8 mph - N/A   Clear